Location: Mohawk View
(42.7837°N, 73.7885°W)
Time: 02:13:24
(UTC+00:00)

Cosmos 1544 Rocket - Visible Passes

Search period start: 23 October 2021 00:00
Search period end: 02 November 2021 00:00
Orbit: 605 x 630 km, 82.5° (Epoch: 22 October)

Date Brightness Start Highest point End Pass type
(mag) Time Alt. Az. Time Alt. Az. Time Alt. Az.
23 Oct 5.9 09:24:20 10° NNE 09:27:56 24° ENE 09:31:30 10° SE visible
23 Oct 4.6 23:33:06 10° SSW 23:37:25 49° WNW 23:41:46 10° N visible
24 Oct 4.8 09:40:45 10° N 09:44:57 43° ENE 09:49:06 10° SSE visible
24 Oct 5.7 23:50:36 10° SW 23:54:25 27° WNW 23:58:15 10° NNW visible
25 Oct 3.6 09:57:27 10° N 10:01:53 81° E 10:06:14 10° S visible
25 Oct 3.8 22:29:06 10° SSE 22:33:23 48° E 22:37:42 10° NNE visible
26 Oct 6.6 00:08:44 10° WSW 00:11:31 16° WNW 00:14:18 10° NNW visible
26 Oct 6.6 08:38:09 10° NE 08:40:29 14° ENE 08:42:49 10° E visible
26 Oct 3.6 10:14:25 10° NNW 10:18:42 54° W 10:22:56 10° S visible
26 Oct 3.6 22:45:44 10° S 22:50:12 90° W 22:54:41 10° N visible
27 Oct 5.8 08:54:00 10° NNE 08:57:37 24° ENE 09:01:10 10° SE visible
27 Oct 4.3 10:31:38 10° NNW 10:35:25 29° W 10:39:11 10° SSW visible
27 Oct 4.6 23:02:47 10° SSW 23:07:06 48° WNW 23:11:26 10° N visible
28 Oct 4.7 09:10:26 10° N 09:14:38 43° ENE 09:18:46 10° SSE visible
28 Oct 5.0 10:49:20 10° NW 10:52:04 16° W 10:54:46 10° SW visible
28 Oct 5.8 23:20:18 10° SW 23:24:06 27° WNW 23:27:55 10° NNW visible
29 Oct 3.5 09:27:09 10° N 09:31:32 81° E 09:35:53 10° S visible
29 Oct 6.6 23:38:27 10° WSW 23:41:12 16° WNW 23:43:57 10° NNW visible
30 Oct 6.5 08:07:50 10° NE 08:10:10 14° ENE 08:12:29 10° E visible
30 Oct 3.6 09:44:06 10° NNW 09:48:22 53° W 09:52:35 10° S visible
30 Oct 3.6 22:15:25 10° S 22:19:53 89° W 22:24:22 10° N visible
31 Oct 5.7 08:27:23 24° ENE 08:27:23 24° ENE 08:30:49 10° SE visible
31 Oct 4.3 10:04:44 28° W 10:05:05 29° W 10:08:49 10° SSW visible
31 Oct 4.7 22:32:29 10° SSW 22:36:47 48° WNW 22:41:07 10° N visible
01 Nov 5.7 08:47:02 19° SE 08:47:02 19° SE 08:48:25 10° SSE visible
01 Nov 5.7 10:24:19 10° WSW 10:24:19 10° WSW 10:24:24 10° WSW visible
01 Nov 5.8 22:50:00 10° SW 22:53:47 27° WNW 22:57:35 10° NNW visible
